Location: Unspecified
(0.0000°N, 0.0000°E)
Time: 17:55:58
(UTC+00:00)

Envisat - Pass Details

Date: 15 January 2020
Orbit: 764 x 766 km, 98.1° (Epoch: 23 January)

Event Time Altitude Azimuth Distance (km) Brightness Sun altitude
Rises 18:26:07 0° 173° (S) 3,231 6.4 -3.9°
Reaches altitude 10° 18:28:26 10° 175° (S) 2,302 5.7 -4.4°
Maximum altitude 18:33:29 71° 258° (WSW) 810 3.4 -5.6°
Drops below altitude 10° 18:38:31 10° 342° (NNW) 2,292 5.5 -6.8°
Sets 18:40:49 0° 344° (NNW) 3,215 6.2 -7.3°
